Location: Lake Arresoe
(56.0000°N, 12.5000°E)
Time: 16:03:03
(UTC+02:00)

Cosmos 1674 - Visible Passes

Search period start: 22 October 2021 00:00
Search period end: 31 October 2021 23:00
Orbit: 492 x 515 km, 82.5° (Epoch: 21 October)

Date Brightness Start Highest point End Pass type
(mag) Time Alt. Az. Time Alt. Az. Time Alt. Az.
22 Oct 5.1 05:00:09 10° SE 05:03:04 22° E 05:06:00 10° NE visible
22 Oct 2.9 06:34:45 10° SW 06:38:19 43° WNW 06:41:56 10° N visible
23 Oct 5.4 04:41:52 10° SE 04:44:25 18° E 04:46:59 10° NE visible
23 Oct 2.7 06:15:51 10° SSW 06:19:30 55° WNW 06:23:14 10° N visible
24 Oct 5.7 04:23:43 10° ESE 04:25:46 14° E 04:27:51 10° NE visible
24 Oct 2.5 05:58:02 18° SSW 06:00:44 71° WNW 06:04:30 10° N visible
25 Oct 5.8 04:05:52 10° E 04:07:08 11° E 04:08:26 10° ENE visible
25 Oct 2.5 05:40:38 39° S 05:41:58 89° E 05:45:45 10° NNE visible
25 Oct 4.5 07:16:07 10° W 07:18:03 14° WNW 07:20:00 10° NNW visible
26 Oct 2.8 05:22:58 67° SE 05:23:12 70° E 05:26:58 10° NNE visible
26 Oct 4.3 06:57:47 14° W 06:59:09 16° WNW 07:01:37 10° NNW visible
27 Oct 3.6 05:05:08 46° ENE 05:05:08 46° ENE 05:08:09 10° NNE visible
27 Oct 4.0 06:39:56 20° WNW 06:40:15 20° WNW 06:43:06 10° NNW visible
28 Oct 4.5 04:47:10 28° NE 04:47:10 28° NE 04:49:19 10° NNE visible
28 Oct 3.9 06:21:58 23° NW 06:21:58 23° NW 06:24:31 10° N visible
29 Oct 5.2 04:29:07 19° NE 04:29:07 19° NE 04:30:26 10° NNE visible
29 Oct 4.1 06:03:54 23° NNW 06:03:54 23° NNW 06:05:53 10° N visible
30 Oct 5.7 04:10:58 13° NE 04:10:58 13° NE 04:11:31 10° NNE visible
30 Oct 4.5 05:45:46 20° NNW 05:45:46 20° NNW 05:47:13 10° N visible
31 Oct 4.9 04:27:34 17° N 04:27:34 17° N 04:28:31 10° N visible
